Time,TemperatureF,DewpointF,PressureIn,WindDirection,WindDirectionDegrees,WindSpeedMPH,WindSpeedGustMPH,Humidity,HourlyPrecipIn,Conditions,Clouds,dailyrainin,SolarRadiationWatts/m^2,SoftwareType,DateUTC
2013-02-17 00:02:00,22.0,10.0,-100.00,NNE,13,9.0,18.0,58,0.00,,,0.09,0.000000,,2013-02-17 05:02:00,
2013-02-17 00:33:00,21.0,9.0,-100.00,NNE,12,10.0,18.0,59,0.00,,,0.09,0.000000,,2013-02-17 05:33:00,
2013-02-17 00:42:00,21.0,9.0,-100.00,NNE,12,10.0,18.0,59,0.00,,,0.09,0.000000,,2013-02-17 05:42:00,
2013-02-17 00:52:00,21.0,9.0,-100.00,NNE,12,10.0,18.0,59,0.00,,,0.09,0.000000,,2013-02-17 05:52:00,
2013-02-17 01:02:00,21.0,9.0,-100.00,NNE,12,10.0,18.0,59,0.00,,,0.09,0.000000,,2013-02-17 06:02:00,
2013-02-17 01:32:00,20.0,8.0,-100.00,North,9,8.0,15.0,59,0.00,,,0.09,0.000000,,2013-02-17 06:32:00,
2013-02-17 01:42:00,20.0,8.0,-100.00,North,9,8.0,15.0,59,0.00,,,0.09,0.000000,,2013-02-17 06:42:00,
2013-02-17 01:52:00,20.0,8.0,-100.00,North,9,8.0,15.0,59,0.00,,,0.09,0.000000,,2013-02-17 06:52:00,
2013-02-17 02:01:00,20.0,8.0,-100.00,North,9,8.0,15.0,59,0.00,,,0.09,0.000000,,2013-02-17 07:01:00,
2013-02-17 02:32:00,19.0,9.0,-100.00,North,8,7.0,16.0,64,0.00,,,0.09,0.000000,,2013-02-17 07:32:00,
2013-02-17 02:42:00,19.0,9.0,-100.00,North,8,7.0,16.0,64,0.00,,,0.09,0.000000,,2013-02-17 07:42:00,
2013-02-17 02:52:00,19.0,9.0,-100.00,North,8,7.0,16.0,64,0.00,,,0.09,0.000000,,2013-02-17 07:52:00,
2013-02-17 03:01:00,19.0,9.0,-100.00,North,8,7.0,16.0,64,0.00,,,0.09,0.000000,,2013-02-17 08:01:00,
2013-02-17 03:32:00,19.0,8.0,-100.00,North,2,7.0,16.0,61,0.00,,,0.09,0.000000,,2013-02-17 08:32:00,
2013-02-17 03:42:00,19.0,8.0,-100.00,North,2,7.0,16.0,61,0.00,,,0.09,0.000000,,2013-02-17 08:42:00,
2013-02-17 03:52:00,19.0,8.0,-100.00,North,2,7.0,16.0,61,0.00,,,0.09,0.000000,,2013-02-17 08:52:00,
2013-02-17 04:02:00,19.0,8.0,-100.00,North,2,7.0,16.0,61,0.00,,,0.09,0.000000,,2013-02-17 09:02:00,
2013-02-17 04:32:00,18.0,9.0,-100.00,North,4,7.0,15.0,66,0.00,,,-99.99,0.000000,,2013-02-17 09:32:00,
2013-02-17 04:42:00,18.0,9.0,-100.00,North,4,7.0,15.0,66,0.00,,,-99.99,0.000000,,2013-02-17 09:42:00,
2013-02-17 04:52:00,18.0,9.0,-100.00,North,4,7.0,15.0,66,0.00,,,-99.99,0.000000,,2013-02-17 09:52:00,
2013-02-17 05:01:00,18.0,9.0,-100.00,North,4,7.0,15.0,66,0.00,,,-99.99,0.000000,,2013-02-17 10:01:00,
2013-02-17 05:32:00,17.0,10.0,-100.00,North,7,8.0,16.0,73,0.00,,,0.09,0.000000,,2013-02-17 10:32:00,
2013-02-17 05:42:00,17.0,10.0,-100.00,North,7,8.0,16.0,73,0.00,,,0.09,0.000000,,2013-02-17 10:42:00,
2013-02-17 05:52:00,17.0,10.0,-100.00,North,7,8.0,16.0,73,0.00,,,0.09,0.000000,,2013-02-17 10:52:00,
2013-02-17 06:01:00,17.0,10.0,-100.00,North,7,8.0,16.0,73,0.00,,,0.09,0.000000,,2013-02-17 11:01:00,
2013-02-17 06:32:00,16.0,9.0,-100.00,North,8,6.0,13.0,75,0.00,,,0.09,0.000000,,2013-02-17 11:32:00,
2013-02-17 06:42:00,16.0,9.0,-100.00,North,8,6.0,13.0,75,0.00,,,0.09,0.000000,,2013-02-17 11:42:00,
2013-02-17 06:53:00,16.0,9.0,-100.00,North,8,6.0,13.0,75,0.00,,,0.09,0.000000,,2013-02-17 11:53:00,
2013-02-17 07:03:00,16.0,9.0,-100.00,North,8,6.0,13.0,75,0.00,,,0.09,0.000000,,2013-02-17 12:03:00,
2013-02-17 07:32:00,15.0,5.0,-100.00,North,2,6.0,20.0,65,0.00,,,0.09,2.000000,,2013-02-17 12:32:00,
2013-02-17 07:42:00,15.0,5.0,-100.00,North,2,6.0,20.0,65,0.00,,,0.09,2.000000,,2013-02-17 12:42:00,
2013-02-17 07:52:00,15.0,5.0,-100.00,North,2,6.0,20.0,65,0.00,,,0.09,2.000000,,2013-02-17 12:52:00,
2013-02-17 08:02:00,15.0,5.0,-100.00,North,2,6.0,20.0,65,0.00,,,0.09,2.000000,,2013-02-17 13:02:00,
2013-02-17 09:32:00,20.0,9.0,-100.00,NNE,22,6.0,12.0,61,-99.99,,,0.09,279.000000,,2013-02-17 14:32:00,
2013-02-17 09:42:00,20.0,9.0,-100.00,NNE,22,6.0,12.0,61,-99.99,,,0.09,279.000000,,2013-02-17 14:42:00,
2013-02-17 09:53:00,20.0,9.0,-100.00,NNE,22,6.0,12.0,61,-99.99,,,0.09,279.000000,,2013-02-17 14:53:00,
2013-02-17 10:02:00,20.0,9.0,-100.00,NNE,22,6.0,12.0,61,-99.99,,,0.09,279.000000,,2013-02-17 15:02:00,
2013-02-17 10:32:00,21.0,10.0,-100.00,North,359,5.0,15.0,62,0.00,,,0.09,214.000000,,2013-02-17 15:32:00,
2013-02-17 10:42:00,21.0,10.0,-100.00,North,359,5.0,15.0,62,0.00,,,0.09,214.000000,,2013-02-17 15:42:00,
2013-02-17 10:52:00,21.0,10.0,-100.00,North,359,5.0,15.0,62,0.00,,,0.09,214.000000,,2013-02-17 15:52:00,
2013-02-17 11:01:00,21.0,10.0,-100.00,North,359,5.0,15.0,62,0.00,,,0.09,214.000000,,2013-02-17 16:01:00,
2013-02-17 11:32:00,21.0,9.0,-100.00,North,354,7.0,14.0,59,0.00,,,0.09,245.000000,,2013-02-17 16:32:00,
2013-02-17 11:42:00,21.0,9.0,-100.00,North,354,7.0,14.0,59,0.00,,,0.09,245.000000,,2013-02-17 16:42:00,
2013-02-17 11:52:00,21.0,9.0,-100.00,North,354,7.0,14.0,59,0.00,,,0.09,245.000000,,2013-02-17 16:52:00,
2013-02-17 12:02:00,21.0,9.0,-100.00,North,354,7.0,14.0,59,0.00,,,0.09,245.000000,,2013-02-17 17:02:00,
2013-02-17 12:32:00,22.0,8.0,-100.00,North,9,6.0,15.0,53,0.00,,,0.03,347.000000,,2013-02-17 17:32:00,
2013-02-17 12:42:00,22.0,8.0,-100.00,North,9,6.0,15.0,53,0.00,,,0.03,347.000000,,2013-02-17 17:42:00,
2013-02-17 12:52:00,22.0,8.0,-100.00,North,9,6.0,15.0,53,0.00,,,0.03,347.000000,,2013-02-17 17:52:00,
2013-02-17 13:02:00,22.0,8.0,-100.00,North,9,6.0,15.0,53,0.00,,,0.03,347.000000,,2013-02-17 18:02:00,
2013-02-17 13:33:00,28.0,15.0,-100.00,NNW,340,5.0,15.0,57,0.00,,,0.00,416.000000,,2013-02-17 18:33:00,
2013-02-17 13:42:00,28.0,15.0,-100.00,NNW,340,5.0,15.0,57,0.00,,,0.00,416.000000,,2013-02-17 18:42:00,
2013-02-17 13:52:00,28.0,15.0,-100.00,NNW,340,5.0,15.0,57,0.00,,,0.00,416.000000,,2013-02-17 18:52:00,
2013-02-17 14:02:00,28.0,15.0,-100.00,NNW,340,5.0,15.0,57,0.00,,,0.00,416.000000,,2013-02-17 19:02:00,
2013-02-17 14:32:00,22.0,9.0,-100.00,North,356,6.0,17.0,56,0.00,,,0.00,328.000000,,2013-02-17 19:32:00,
2013-02-17 14:42:00,22.0,9.0,-100.00,North,356,6.0,17.0,56,0.00,,,0.00,328.000000,,2013-02-17 19:42:00,
2013-02-17 14:52:00,22.0,9.0,-100.00,North,356,6.0,17.0,56,0.00,,,0.00,328.000000,,2013-02-17 19:52:00,
2013-02-17 15:02:00,22.0,9.0,-100.00,North,356,6.0,17.0,56,0.00,,,0.00,328.000000,,2013-02-17 20:02:00,
2013-02-17 15:32:00,25.0,9.0,-100.00,North,354,6.0,17.0,50,0.00,,,0.00,334.000000,,2013-02-17 20:32:00,
2013-02-17 15:43:00,25.0,9.0,-100.00,North,354,6.0,17.0,50,0.00,,,0.00,334.000000,,2013-02-17 20:43:00,
2013-02-17 15:52:00,25.0,9.0,-100.00,North,354,6.0,17.0,50,0.00,,,0.00,334.000000,,2013-02-17 20:52:00,
2013-02-17 16:02:00,25.0,9.0,-100.00,North,354,6.0,17.0,50,0.00,,,0.00,334.000000,,2013-02-17 21:02:00,
2013-02-17 16:32:00,21.0,3.0,-100.00,North,354,7.0,16.0,44,0.00,,,0.00,136.000000,,2013-02-17 21:32:00,
2013-02-17 16:42:00,21.0,3.0,-100.00,North,354,7.0,16.0,44,0.00,,,0.00,136.000000,,2013-02-17 21:42:00,
2013-02-17 16:53:00,21.0,3.0,-100.00,North,354,7.0,16.0,44,0.00,,,0.00,136.000000,,2013-02-17 21:53:00,
2013-02-17 17:01:00,21.0,3.0,-100.00,North,354,7.0,16.0,44,0.00,,,0.00,136.000000,,2013-02-17 22:01:00,
2013-02-17 17:32:00,19.0,0.0,-100.00,North,4,8.0,22.0,42,0.00,,,0.00,80.000000,,2013-02-17 22:32:00,
2013-02-17 17:42:00,19.0,0.0,-100.00,North,4,8.0,22.0,42,0.00,,,0.00,80.000000,,2013-02-17 22:42:00,
2013-02-17 17:52:00,19.0,0.0,-100.00,North,4,8.0,22.0,42,0.00,,,0.00,80.000000,,2013-02-17 22:52:00,
2013-02-17 18:02:00,19.0,0.0,-100.00,North,4,8.0,22.0,42,0.00,,,0.00,80.000000,,2013-02-17 23:02:00,
2013-02-17 18:32:00,16.0,-1.0,-100.00,NNW,348,8.0,17.0,47,0.00,,,0.00,11.000000,,2013-02-17 23:32:00,
2013-02-17 18:42:00,16.0,-1.0,-100.00,NNW,348,8.0,17.0,47,0.00,,,0.00,11.000000,,2013-02-17 23:42:00,
2013-02-17 18:52:00,16.0,-1.0,-100.00,NNW,348,8.0,17.0,47,0.00,,,0.00,11.000000,,2013-02-17 23:52:00,
2013-02-17 19:02:00,16.0,-1.0,-100.00,NNW,348,8.0,17.0,47,0.00,,,0.00,11.000000,,2013-02-18 00:02:00,
2013-02-17 19:32:00,16.0,1.0,-100.00,NNW,336,6.0,26.0,50,0.00,,,0.00,0.000000,,2013-02-18 00:32:00,
2013-02-17 19:42:00,16.0,1.0,-100.00,NNW,336,6.0,26.0,50,0.00,,,0.00,0.000000,,2013-02-18 00:42:00,
2013-02-17 19:52:00,16.0,1.0,-100.00,NNW,336,6.0,26.0,50,0.00,,,0.00,0.000000,,2013-02-18 00:52:00,
2013-02-17 20:01:00,16.0,1.0,-100.00,NNW,336,6.0,26.0,50,0.00,,,0.00,0.000000,,2013-02-18 01:01:00,
2013-02-17 21:32:00,14.0,0.0,-100.00,North,9,8.0,22.0,54,-99.99,,,0.00,0.000000,,2013-02-18 02:32:00,
2013-02-17 21:42:00,14.0,0.0,-100.00,North,9,8.0,22.0,54,-99.99,,,0.00,0.000000,,2013-02-18 02:42:00,
2013-02-17 21:52:00,14.0,0.0,-100.00,North,9,8.0,22.0,54,-99.99,,,0.00,0.000000,,2013-02-18 02:52:00,
2013-02-17 22:02:00,14.0,0.0,-100.00,North,9,8.0,22.0,54,-99.99,,,0.00,0.000000,,2013-02-18 03:02:00,
2013-02-17 22:32:00,13.0,1.0,-100.00,NNE,20,6.0,17.0,58,0.00,,,0.00,0.000000,,2013-02-18 03:32:00,
2013-02-17 22:42:00,13.0,1.0,-100.00,NNE,20,6.0,17.0,58,0.00,,,0.00,0.000000,,2013-02-18 03:42:00,
2013-02-17 22:52:00,13.0,1.0,-100.00,NNE,20,6.0,17.0,58,0.00,,,0.00,0.000000,,2013-02-18 03:52:00,
2013-02-17 23:01:00,13.0,1.0,-100.00,NNE,20,6.0,17.0,58,0.00,,,0.00,0.000000,,2013-02-18 04:01:00,
2013-02-17 23:32:00,13.0,1.0,-100.00,North,2,6.0,17.0,58,0.00,,,0.00,0.000000,,2013-02-18 04:32:00,
2013-02-17 23:42:00,13.0,1.0,-100.00,North,2,6.0,17.0,58,0.00,,,0.00,0.000000,,2013-02-18 04:42:00,
2013-02-17 23:52:00,13.0,1.0,-100.00,North,2,6.0,17.0,58,0.00,,,0.00,0.000000,,2013-02-18 04:52:00,